Oakland, MD

6:59 AM EDT on June 24, 2017 (GMT -0400)
Oakland

Weather History for K2G4 - January, 2012

Change the Weather History Date:

Thursday, January 12, 2012

  Actual Average (KMGW) Record (KMGW)
Temperature  
Mean Temperature 36 °F -  
Max Temperature 39 °F 35 °F 68 °F (2013)
Min Temperature 32 °F 18 °F -4 °F (1981)
Degree Days  
Heating Degree Days 30    
Moisture  
Dew Point 37 °F    
Average Humidity 100    
Maximum Humidity 100    
Minimum Humidity 100    
Precipitation  
Precipitation 0.00 in - - ()
Sea Level Pressure  
Sea Level Pressure 29.41 in    
Wind  
Wind Speed 12 mph (SSW)    
Max Wind Speed 20 mph    
Max Gust Speed 29 mph    
Visibility 2 miles    
Events Fog    
Averages and records for this station are not official NWS values.
T = Trace of Precipitation, MM = Missing Value Source: NWS Daily Summary

Daily Weather History Graph

Daily Weather History Graph

Search for Another Location

Airport or City:

Trip Planner

Search our weather history database for the weather conditions in past years. The results will help you decide how hot, cold, wet, or windy it might be!

Date:

Astronomy

Jan. 12, 2012 Rise Set
Actual Time 7:37 AM EST 5:14 PM EST
Civil Twilight 7:07 AM EST 5:43 PM EST
Nautical Twilight 6:34 AM EST 6:17 PM EST
Astronomical Twilight 6:01 AM EST 6:49 PM EST
Moon 9:16 PM EST (1/12) 9:21 AM EST (1/12)
Length of Visible Light 10h 36m
Length of Day
9h 36m
Waning Gibbous, 87% of the Moon is Illuminated
Jan 12
Waning Gibbous
Jan 16
Last Quarter
Jan 23
New
Jan 30
First Quarter
Feb 7
Full

Hourly Weather History & Observations

Time (EST) Temp. Windchill Dew Point Humidity Pressure Visibility Wind Dir Wind Speed Gust Speed Precip Events Conditions
12:05 AM 33.8 °F 22.5 °F 33.8 °F 100% 29.45 in 0.5 mi ESE 19.6 mph - N/A Fog Fog
12:25 AM 33.8 °F 22.5 °F 33.8 °F 100% 29.44 in 0.5 mi SE 19.6 mph - N/A Fog Fog
12:45 AM 33.8 °F 25.8 °F 33.8 °F 100% 29.45 in 0.5 mi SE 10.4 mph - N/A Fog Fog
1:40 AM 33.8 °F 25.8 °F 33.8 °F 100% 29.45 in 0.2 mi SE 10.4 mph - N/A Fog Fog
2:00 AM 33.8 °F 24.8 °F 33.8 °F 100% 29.45 in 0.2 mi SE 12.7 mph - N/A Fog Fog
2:20 AM 33.8 °F 26.4 °F 33.8 °F 100% 29.46 in 0.2 mi SSE 9.2 mph - N/A Fog Fog
2:40 AM 33.8 °F 25.3 °F 33.8 °F 100% 29.45 in 0.5 mi SE 11.5 mph 16.1 mph N/A Fog Fog
3:20 AM 33.8 °F 25.8 °F 33.8 °F 100% 29.43 in 0.2 mi SE 10.4 mph - N/A Fog Fog
3:40 AM 33.8 °F 26.4 °F 33.8 °F 100% 29.44 in 0.2 mi SE 9.2 mph - N/A Fog Fog
4:00 AM 33.8 °F 25.3 °F 33.8 °F 100% 29.43 in 0.2 mi SE 11.5 mph - N/A Fog Fog
4:15 AM 33.8 °F 25.8 °F 33.8 °F 100% 29.43 in 0.2 mi SSE 10.4 mph - N/A Fog Fog
4:35 AM 33.8 °F 26.4 °F 33.8 °F 100% 29.42 in 0.2 mi SSE 9.2 mph - N/A Fog Fog
4:55 AM 33.8 °F 26.4 °F 33.8 °F 100% 29.43 in 0.2 mi South 9.2 mph - N/A Fog Fog
5:15 AM 33.8 °F 26.4 °F 33.8 °F 100% 29.42 in 0.5 mi SSE 9.2 mph - N/A Fog Fog
5:35 AM 33.8 °F 26.4 °F 33.8 °F 100% 29.42 in 0.2 mi South 9.2 mph - N/A Fog Fog
5:55 AM 33.8 °F 26.4 °F 33.8 °F 100% 29.42 in 0.2 mi South 9.2 mph - N/A Fog Fog
6:15 AM 33.8 °F 27.0 °F 33.8 °F 100% 29.43 in 0.5 mi SSW 8.1 mph - N/A Fog Fog
6:30 AM 33.8 °F 25.8 °F 33.8 °F 100% 29.43 in 0.5 mi SSW 10.4 mph - N/A Fog Fog
6:50 AM 35.6 °F 27.5 °F 35.6 °F 100% 29.43 in 0.5 mi SSW 11.5 mph - N/A Fog Fog
7:10 AM 35.6 °F 28.0 °F 35.6 °F 100% 29.44 in 0.5 mi SSW 10.4 mph - N/A Fog Fog
7:30 AM 37.4 °F 30.3 °F 37.4 °F 100% 29.44 in 0.8 mi SW 10.4 mph 17.3 mph N/A   Overcast
7:50 AM 37.4 °F 30.8 °F 37.4 °F 100% 29.43 in 1.2 mi SW 9.2 mph 16.1 mph N/A   Overcast
8:30 AM 39.2 °F 32.0 °F 39.2 °F 100% 29.44 in 0.5 mi WSW 11.5 mph 17.3 mph N/A Fog Fog
8:50 AM 39.2 °F 31.2 °F 39.2 °F 100% 29.44 in 2.5 mi WSW 13.8 mph 21.9 mph N/A   Overcast
9:05 AM 39.2 °F 30.8 °F 39.2 °F 100% 29.45 in 2.0 mi WSW 15.0 mph 27.6 mph N/A   Overcast
9:25 AM 37.4 °F 31.4 °F 37.4 °F 100% 29.46 in 2.5 mi WSW 8.1 mph 28.8 mph N/A   Overcast
9:45 AM 37.4 °F 29.3 °F 37.4 °F 100% 29.46 in 1.8 mi WSW 12.7 mph 19.6 mph N/A   Overcast
10:45 AM 37.4 °F 28.5 °F 37.4 °F 100% 29.46 in 2.5 mi WSW 15.0 mph 23.0 mph N/A   Overcast
11:05 AM 37.4 °F 29.3 °F 37.4 °F 100% 29.45 in 1.8 mi WSW 12.7 mph 24.2 mph N/A   Overcast
11:20 AM 37.4 °F 30.8 °F 37.4 °F 100% 29.45 in 1.5 mi WSW 9.2 mph 16.1 mph N/A   Overcast
11:40 AM 37.4 °F 30.3 °F 37.4 °F 100% 29.44 in 0.5 mi WSW 10.4 mph 17.3 mph N/A Fog Fog
12:00 PM 37.4 °F 29.3 °F 37.4 °F 100% 29.44 in 0.2 mi WSW 12.7 mph 18.4 mph N/A Fog Fog
12:20 PM 39.2 °F 33.0 °F 39.2 °F 100% 29.43 in 0.2 mi WSW 9.2 mph 16.1 mph N/A Fog Fog
12:40 PM 39.2 °F 31.6 °F 39.2 °F 100% 29.43 in 0.2 mi WSW 12.7 mph 19.6 mph N/A Fog Fog
1:00 PM 39.2 °F 31.6 °F 39.2 °F 100% 29.43 in 0.2 mi WSW 12.7 mph 17.3 mph N/A Fog Fog
1:20 PM 39.2 °F 33.0 °F 39.2 °F 100% 29.43 in 1.0 mi WSW 9.2 mph 23.0 mph N/A   Overcast
1:35 PM 39.2 °F 32.5 °F 39.2 °F 100% 29.43 in 1.0 mi WSW 10.4 mph 23.0 mph N/A   Overcast
1:55 PM 39.2 °F 32.0 °F 39.2 °F 100% 29.43 in 3.0 mi WSW 11.5 mph 21.9 mph N/A   Overcast
2:15 PM 39.2 °F 31.6 °F 39.2 °F 100% 29.42 in 10.0 mi WSW 12.7 mph 21.9 mph N/A   Overcast
2:35 PM 39.2 °F 33.0 °F 39.2 °F 100% 29.42 in 7.0 mi WSW 9.2 mph 18.4 mph N/A   Overcast
2:55 PM 39.2 °F 33.6 °F 39.2 °F 100% 29.42 in 1.8 mi WSW 8.1 mph 17.3 mph N/A   Overcast
3:15 PM 39.2 °F 33.6 °F 39.2 °F 100% 29.42 in 0.5 mi WSW 8.1 mph - N/A Fog Fog
3:35 PM 39.2 °F 35.9 °F 39.2 °F 100% 29.42 in 1.8 mi WSW 4.6 mph - N/A   Overcast
3:50 PM 39.2 °F 34.2 °F 39.2 °F 100% 29.42 in 1.8 mi SW 6.9 mph - N/A   Overcast
4:30 PM 39.2 °F 34.2 °F 39.2 °F 100% 29.43 in 2.5 mi SSW 6.9 mph - N/A   Overcast
4:50 PM 39.2 °F 34.2 °F 39.2 °F 100% 29.43 in 1.8 mi SW 6.9 mph - N/A   Overcast
5:10 PM 39.2 °F 34.2 °F 39.2 °F 100% 29.43 in 1.0 mi SW 6.9 mph - N/A   Overcast
5:30 PM 39.2 °F 33.6 °F 39.2 °F 100% 29.43 in 7.0 mi SSW 8.1 mph - N/A   Overcast
5:50 PM 39.2 °F 35.0 °F 39.2 °F 100% 29.42 in 1.8 mi SW 5.8 mph - N/A   Overcast
6:45 PM 39.2 °F 35.0 °F 39.2 °F 100% 29.42 in 7.0 mi SW 5.8 mph - N/A   Overcast
7:05 PM 37.4 °F 32.1 °F 37.4 °F 100% 29.40 in 7.0 mi SW 6.9 mph - N/A   Overcast
7:25 PM 37.4 °F 33.8 °F 37.4 °F 100% 29.39 in 10.0 mi SSW 4.6 mph - N/A   Scattered Clouds
7:45 PM 37.4 °F 34.9 °F 37.4 °F 100% 29.38 in 5.0 mi SSE 3.5 mph - N/A   Mostly Cloudy
8:05 PM 35.6 °F 31.7 °F 35.6 °F 100% 29.37 in 0.5 mi South 4.6 mph - N/A Fog Fog
8:20 PM 37.4 °F 32.1 °F 37.4 °F 100% 29.36 in 1.5 mi South 6.9 mph - N/A   Mostly Cloudy
8:40 PM 37.4 °F 32.1 °F 37.4 °F 100% 29.35 in 0.8 mi SSE 6.9 mph - N/A   Overcast
9:00 PM 37.4 °F 30.3 °F 37.4 °F 100% 29.34 in 1.0 mi SSE 10.4 mph - N/A   Overcast
9:20 PM 37.4 °F 31.4 °F 37.4 °F 100% 29.33 in 10.0 mi SSE 8.1 mph - N/A   Overcast
9:40 PM 37.4 °F 32.1 °F 37.4 °F 100% 29.32 in 10.0 mi South 6.9 mph - N/A   Overcast
10:00 PM 37.4 °F 30.3 °F 37.4 °F 100% 29.31 in 10.0 mi South 10.4 mph - N/A   Overcast
10:20 PM 37.4 °F 29.8 °F 37.4 °F 100% 29.33 in 5.0 mi SW 11.5 mph 19.6 mph N/A   Overcast
10:35 PM 33.8 °F 23.5 °F 33.8 °F 100% 29.35 in 7.0 mi WSW 16.1 mph 27.6 mph N/A   Overcast
10:55 PM 32.0 °F 22.1 °F 32.0 °F 100% 29.35 in 1.5 mi WSW 13.8 mph 18.4 mph N/A   Overcast
11:15 PM 32.0 °F 24.8 °F 32.0 °F 100% 29.35 in 2.0 mi West 8.1 mph 19.6 mph N/A   Overcast
11:35 PM 32.0 °F 23.6 °F 32.0 °F 100% 29.34 in 1.0 mi WSW 10.4 mph 17.3 mph N/A   Overcast
11:55 PM 32.0 °F 20.5 °F 32.0 °F 100% 29.35 in 0.5 mi West 18.4 mph 28.8 mph N/A Fog Fog